Belmar-Farmingdale, NJ

5:50 PM EST on December 07, 2019 (GMT -0500)
Allaire

Weather History for KBLM - October, 2019

Change the Weather History Date:

Monday, October 14, 2019

  Actual Average Record
Temperature  
Mean Temperature 63 °F -  
Max Temperature 73 °F 61 °F 77 °F (2000)
Min Temperature 52 °F 46 °F 37 °F (2006)
Degree Days  
Heating Degree Days 2    
Growing Degree Days 13 (Base 50)    
Moisture  
Dew Point 51 °F    
Average Humidity 74    
Maximum Humidity 100    
Minimum Humidity 37    
Precipitation  
Precipitation 0.00 in - - ()
Sea Level Pressure  
Sea Level Pressure 29.99 in    
Wind  
Wind Speed 4 mph ()    
Max Wind Speed 13 mph    
Max Gust Speed 18 mph    
Visibility 9.9 miles    
Events      
Averages and records for this station are not official NWS values.
T = Trace of Precipitation, MM = Missing Value Source: Averaged Metar Reports

Daily Weather History Graph

Daily Weather History Graph

Search for Another Location

Airport or City:

Astronomy

Oct. 14, 2019 Rise Set
Actual Time 7:05 AM EDT 6:18 PM EDT
Civil Twilight 6:38 AM EDT 6:45 PM EDT
Nautical Twilight 6:06 AM EDT 7:17 PM EDT
Astronomical Twilight 5:35 AM EDT 7:48 PM EDT
Moon 7:07 PM EDT (10/14) 7:35 AM EDT (10/14)
Length of Visible Light 12h 07m
Length of Day
11h 12m
Waxing Gibbous, 99% of the Moon is Illuminated
Oct 14
Waxing Gibbous
Oct 21
Last Quarter
Oct 27
New
Nov 4
First Quarter
Nov 12
Full

Hourly Weather History & Observations

Time (EDT) Temp. Dew Point Humidity Pressure Visibility Wind Dir Wind Speed Gust Speed Precip Events Conditions
12:56 AM 55.9 °F 54.0 °F 93% 30.01 in 10.0 mi East 3.5 mph - 0.00 in   Overcast
1:40 AM 55.4 °F 53.6 °F 94% 30.01 in 10.0 mi ENE 3.5 mph - N/A   Overcast
1:56 AM 55.9 °F 55.0 °F 97% 30.01 in 10.0 mi NNE 3.5 mph - N/A   Overcast
2:56 AM 57.0 °F 55.0 °F 93% 29.98 in 10.0 mi NE 3.5 mph - N/A   Overcast
3:21 AM 57.2 °F 55.4 °F 94% 29.97 in 10.0 mi NE 3.5 mph - N/A   Overcast
3:51 AM 57.2 °F 55.4 °F 94% 29.97 in 10.0 mi ENE 3.5 mph - N/A   Overcast
3:56 AM 57.0 °F 55.0 °F 93% 29.97 in 10.0 mi Calm Calm - N/A   Overcast
4:56 AM 57.9 °F 55.9 °F 93% 29.98 in 10.0 mi Calm Calm - N/A   Overcast
5:52 AM 57.2 °F 55.4 °F 94% 29.98 in 10.0 mi Calm Calm - 0.00 in   Overcast
5:56 AM 57.0 °F 55.9 °F 96% 29.98 in 10.0 mi ESE 3.5 mph - 0.00 in   Overcast
6:56 AM 55.9 °F 55.9 °F 100% 29.99 in 9.0 mi NW 3.5 mph - N/A   Overcast
7:56 AM 57.0 °F 55.9 °F 96% 30.01 in 9.0 mi WNW 4.6 mph - N/A   Overcast
8:56 AM 57.9 °F 57.0 °F 97% 30.02 in 10.0 mi West 3.5 mph - N/A   Overcast
9:56 AM 60.1 °F 57.9 °F 93% 30.03 in 10.0 mi West 3.5 mph - N/A   Overcast
10:07 AM 60.8 °F 57.2 °F 88% 30.03 in 10.0 mi West 3.5 mph - N/A   Overcast
10:21 AM 62.6 °F 57.2 °F 82% 30.03 in 10.0 mi WNW 4.6 mph - N/A   Overcast
10:38 AM 62.6 °F 55.4 °F 77% 30.02 in 10.0 mi West 5.8 mph - N/A   Overcast
10:56 AM 63.0 °F 53.1 °F 70% 30.02 in 10.0 mi WNW 5.8 mph - N/A   Overcast
11:45 AM 66.2 °F 53.6 °F 64% 30.01 in 10.0 mi Variable 5.8 mph - N/A   Scattered Clouds
11:56 AM 66.9 °F 53.1 °F 61% 30.00 in 10.0 mi SW 9.2 mph - N/A   Clear
12:56 PM 69.1 °F 52.0 °F 54% 29.98 in 10.0 mi SW 9.2 mph - N/A   Clear
1:56 PM 72.0 °F 50.0 °F 46% 29.96 in 10.0 mi West 9.2 mph - N/A   Clear
2:56 PM 72.0 °F 48.9 °F 44% 29.94 in 10.0 mi West 12.7 mph 18.4 mph N/A   Clear
3:56 PM 73.0 °F 46.0 °F 38% 29.94 in 10.0 mi West 9.2 mph - N/A   Clear
4:56 PM 72.0 °F 45.0 °F 38% 29.93 in 10.0 mi West 9.2 mph - N/A   Clear
5:56 PM 68.0 °F 41.0 °F 37% 29.95 in 10.0 mi WSW 6.9 mph - N/A   Clear
6:56 PM 64.0 °F 41.0 °F 43% 29.97 in 10.0 mi West 5.8 mph - N/A   Clear
7:56 PM 62.1 °F 41.0 °F 46% 29.99 in 10.0 mi West 5.8 mph - N/A   Clear
8:56 PM 61.0 °F 41.0 °F 48% 30.01 in 10.0 mi SW 4.6 mph - N/A   Clear
9:56 PM 57.9 °F 43.0 °F 58% 30.03 in 10.0 mi SSW 4.6 mph - N/A   Clear
10:56 PM 53.1 °F 44.1 °F 71% 30.05 in 10.0 mi West 6.9 mph - N/A   Clear
11:56 PM 52.0 °F 44.1 °F 74% 30.06 in 10.0 mi West 5.8 mph - N/A   Clear